Time,TemperatureF,DewpointF,PressureIn,WindDirection,WindDirectionDegrees,WindSpeedMPH,WindSpeedGustMPH,Humidity,HourlyPrecipIn,Conditions,Clouds,dailyrainin,SoftwareType,DateUTC
2013-11-14 00:03:00,38.7,19.7,29.34,NNW,339,0.0,1.0,46,0.00,,---,0.00,VWS V12.08,2013-11-14 06:03:00,
2013-11-14 00:08:00,38.6,19.6,29.34,NW,318,0.0,1.0,46,0.00,,---,0.00,VWS V12.08,2013-11-14 06:08:00,
2013-11-14 00:13:00,38.5,19.5,29.34,NW,306,0.0,1.0,46,0.00,,---,0.00,VWS V12.08,2013-11-14 06:13:00,
2013-11-14 00:18:00,38.5,20.0,29.34,NW,307,0.0,1.0,47,0.00,,---,0.00,VWS V12.08,2013-11-14 06:18:00,
2013-11-14 00:24:00,38.5,20.0,29.33,NW,326,0.0,1.0,47,0.00,,---,0.00,VWS V12.08,2013-11-14 06:24:00,
2013-11-14 00:29:00,38.4,19.9,29.33,NNW,331,0.0,1.0,47,0.00,,---,0.00,VWS V12.08,2013-11-14 06:29:00,
2013-11-14 00:35:00,38.4,19.9,29.34,NW,315,0.0,2.0,47,0.00,,---,0.00,VWS V12.08,2013-11-14 06:35:00,
2013-11-14 00:40:00,38.4,19.9,29.33,NW,314,0.0,2.0,47,0.00,,---,0.00,VWS V12.08,2013-11-14 06:40:00,
2013-11-14 00:46:00,38.5,20.0,29.33,WNW,298,0.0,2.0,47,0.00,,---,0.00,VWS V12.08,2013-11-14 06:46:00,
2013-11-14 00:51:00,38.5,20.0,29.33,NW,312,0.0,2.0,47,0.00,,---,0.00,VWS V12.08,2013-11-14 06:51:00,
2013-11-14 00:57:00,38.5,20.0,29.33,NNW,329,0.0,2.0,47,0.00,,---,0.00,VWS V12.08,2013-11-14 06:57:00,
2013-11-14 01:03:00,38.4,20.4,29.32,WNW,282,0.0,0.0,48,0.00,,---,0.00,VWS V12.08,2013-11-14 07:03:00,
2013-11-14 01:08:00,38.3,20.4,29.32,NW,307,0.0,0.0,48,0.00,,---,0.00,VWS V12.08,2013-11-14 07:08:00,
2013-11-14 01:13:00,38.3,20.4,29.32,West,264,0.0,1.0,48,0.00,,---,0.00,VWS V12.08,2013-11-14 07:13:00,
2013-11-14 01:19:00,38.2,20.2,29.32,WNW,291,0.0,1.0,48,0.00,,---,0.00,VWS V12.08,2013-11-14 07:19:00,
2013-11-14 01:24:00,38.2,20.2,29.32,NW,317,0.0,1.0,48,0.00,,---,0.00,VWS V12.08,2013-11-14 07:24:00,
2013-11-14 01:29:00,38.2,20.2,29.31,NW,308,0.0,1.0,48,0.00,,---,0.00,VWS V12.08,2013-11-14 07:29:00,
2013-11-14 01:34:00,38.2,20.2,29.31,WNW,303,0.0,1.0,48,0.00,,---,0.00,VWS V12.08,2013-11-14 07:34:00,
2013-11-14 01:39:00,38.3,20.4,29.32,SW,230,0.0,1.0,48,0.00,,---,0.00,VWS V12.08,2013-11-14 07:39:00,
2013-11-14 01:45:00,38.2,20.2,29.32,WNW,293,0.0,1.0,48,0.00,,---,0.00,VWS V12.08,2013-11-14 07:45:00,
2013-11-14 01:51:00,38.2,20.7,29.31,NW,322,0.0,1.0,49,0.00,,---,0.00,VWS V12.08,2013-11-14 07:51:00,
2013-11-14 01:56:00,38.2,20.7,29.31,WSW,258,0.0,1.0,49,0.00,,---,0.00,VWS V12.08,2013-11-14 07:56:00,
2013-11-14 02:01:00,38.3,20.8,29.31,North,359,0.0,0.0,49,0.00,,---,0.00,VWS V12.08,2013-11-14 08:01:00,
2013-11-14 02:06:00,38.3,20.8,29.31,SSW,211,0.0,1.0,49,0.00,,---,0.00,VWS V12.08,2013-11-14 08:06:00,
2013-11-14 02:11:00,38.3,20.8,29.30,NNW,327,0.0,1.0,49,0.00,,---,0.00,VWS V12.08,2013-11-14 08:11:00,
2013-11-14 02:16:00,38.4,20.9,29.30,SW,230,0.0,1.0,49,0.00,,---,0.00,VWS V12.08,2013-11-14 08:16:00,
2013-11-14 02:21:00,38.4,20.9,29.31,WNW,296,0.0,1.0,49,0.00,,---,0.00,VWS V12.08,2013-11-14 08:21:00,
2013-11-14 02:26:00,38.3,20.8,29.30,WNW,299,0.0,1.0,49,0.00,,---,0.00,VWS V12.08,2013-11-14 08:26:00,
2013-11-14 02:31:00,38.4,20.9,29.30,NW,324,0.0,0.0,49,0.00,,---,0.00,VWS V12.08,2013-11-14 08:31:00,
2013-11-14 02:36:00,38.4,20.9,29.30,SW,233,0.0,1.0,49,0.00,,---,0.00,VWS V12.08,2013-11-14 08:36:00,
2013-11-14 02:41:00,38.5,21.0,29.29,WNW,302,0.0,1.0,49,0.00,,---,0.00,VWS V12.08,2013-11-14 08:41:00,
2013-11-14 02:46:00,38.5,21.0,29.30,WNW,297,0.0,1.0,49,0.00,,---,0.00,VWS V12.08,2013-11-14 08:46:00,
2013-11-14 02:51:00,38.4,21.4,29.29,NW,317,0.0,1.0,50,0.00,,---,0.00,VWS V12.08,2013-11-14 08:51:00,
2013-11-14 02:56:00,38.4,21.4,29.30,NW,316,0.0,1.0,50,0.00,,---,0.00,VWS V12.08,2013-11-14 08:56:00,
2013-11-14 03:02:00,38.4,21.4,29.29,WNW,284,0.0,1.0,50,0.00,,---,0.00,VWS V12.08,2013-11-14 09:02:00,
2013-11-14 03:07:00,38.4,21.4,29.29,WNW,296,0.0,1.0,50,0.00,,---,0.00,VWS V12.08,2013-11-14 09:07:00,
2013-11-14 03:12:00,38.3,21.3,29.29,West,259,0.0,1.0,50,0.00,,---,0.00,VWS V12.08,2013-11-14 09:12:00,
2013-11-14 03:17:00,38.3,21.3,29.29,NW,320,0.0,1.0,50,0.00,,---,0.00,VWS V12.08,2013-11-14 09:17:00,
2013-11-14 03:22:00,38.2,21.2,29.29,SW,217,0.0,1.0,50,0.00,,---,0.00,VWS V12.08,2013-11-14 09:22:00,
2013-11-14 03:28:00,38.2,21.2,29.28,WNW,296,0.0,1.0,50,0.00,,---,0.00,VWS V12.08,2013-11-14 09:28:00,
2013-11-14 03:33:00,38.1,21.6,29.29,NNW,341,0.0,1.0,51,0.00,,---,0.00,VWS V12.08,2013-11-14 09:33:00,
2013-11-14 03:38:00,38.0,21.5,29.29,WNW,290,0.0,1.0,51,0.00,,---,0.00,VWS V12.08,2013-11-14 09:38:00,
2013-11-14 03:43:00,37.9,21.4,29.28,WNW,290,0.0,1.0,51,0.00,,---,0.00,VWS V12.08,2013-11-14 09:43:00,
2013-11-14 03:48:00,38.0,21.5,29.28,WNW,282,0.0,1.0,51,0.00,,---,0.00,VWS V12.08,2013-11-14 09:48:00,
2013-11-14 03:54:00,38.1,21.6,29.28,WNW,284,0.0,1.0,51,0.00,,---,0.00,VWS V12.08,2013-11-14 09:54:00,
2013-11-14 03:59:00,38.1,21.6,29.28,SW,232,0.0,1.0,51,0.00,,---,0.00,VWS V12.08,2013-11-14 09:59:00,
2013-11-14 04:04:00,37.9,21.4,29.28,NW,311,0.0,0.0,51,0.00,,---,0.00,VWS V12.08,2013-11-14 10:04:00,
2013-11-14 04:09:00,37.8,21.3,29.28,West,279,0.0,0.0,51,0.00,,---,0.00,VWS V12.08,2013-11-14 10:09:00,
2013-11-14 04:14:00,37.8,21.3,29.28,North,351,0.0,1.0,51,0.00,,---,0.00,VWS V12.08,2013-11-14 10:14:00,
2013-11-14 04:20:00,37.9,21.4,29.27,NNW,336,0.0,2.0,51,0.00,,---,0.00,VWS V12.08,2013-11-14 10:20:00,
2013-11-14 04:26:00,38.0,21.5,29.27,NNW,346,0.0,2.0,51,0.00,,---,0.00,VWS V12.08,2013-11-14 10:26:00,
2013-11-14 04:31:00,37.9,21.4,29.28,West,268,0.0,0.0,51,0.00,,---,0.00,VWS V12.08,2013-11-14 10:31:00,
2013-11-14 04:36:00,37.8,21.3,29.27,NW,314,1.0,1.0,51,0.00,,---,0.00,VWS V12.08,2013-11-14 10:36:00,
2013-11-14 04:42:00,37.8,21.3,29.27,WNW,291,0.0,1.0,51,0.00,,---,0.00,VWS V12.08,2013-11-14 10:42:00,
2013-11-14 04:48:00,37.7,21.7,29.28,WNW,297,0.0,1.0,52,0.00,,---,0.00,VWS V12.08,2013-11-14 10:48:00,
2013-11-14 04:54:00,37.7,21.7,29.28,NW,321,0.0,1.0,52,0.00,,---,0.00,VWS V12.08,2013-11-14 10:54:00,
2013-11-14 05:00:00,37.6,21.6,29.27,NW,304,0.0,1.0,52,0.00,,---,0.00,VWS V12.08,2013-11-14 11:00:00,
2013-11-14 05:05:00,37.6,21.6,29.27,North,352,0.0,1.0,52,0.00,,---,0.00,VWS V12.08,2013-11-14 11:05:00,
2013-11-14 05:10:00,37.5,21.5,29.27,NW,306,0.0,1.0,52,0.00,,---,0.00,VWS V12.08,2013-11-14 11:10:00,
2013-11-14 05:15:00,37.5,21.5,29.27,WNW,301,0.0,1.0,52,0.00,,---,0.00,VWS V12.08,2013-11-14 11:15:00,
2013-11-14 05:20:00,37.4,21.4,29.27,NW,322,0.0,1.0,52,0.00,,---,0.00,VWS V12.08,2013-11-14 11:20:00,
2013-11-14 05:26:00,37.3,21.8,29.27,West,273,0.0,1.0,53,0.00,,---,0.00,VWS V12.08,2013-11-14 11:26:00,
2013-11-14 05:31:00,37.1,21.6,29.26,SW,225,0.0,0.0,53,0.00,,---,0.00,VWS V12.08,2013-11-14 11:31:00,
2013-11-14 05:36:00,37.0,21.5,29.27,West,260,0.0,0.0,53,0.00,,---,0.00,VWS V12.08,2013-11-14 11:36:00,
2013-11-14 05:41:00,36.8,21.7,29.26,WNW,285,0.0,0.0,54,0.00,,---,0.00,VWS V12.08,2013-11-14 11:41:00,
2013-11-14 05:46:00,36.7,21.6,29.26,WNW,286,0.0,0.0,54,0.00,,---,0.00,VWS V12.08,2013-11-14 11:46:00,
2013-11-14 05:51:00,36.7,21.6,29.26,WNW,299,0.0,1.0,54,0.00,,---,0.00,VWS V12.08,2013-11-14 11:51:00,
2013-11-14 05:56:00,36.7,21.6,29.26,West,259,0.0,1.0,54,0.00,,---,0.00,VWS V12.08,2013-11-14 11:56:00,
2013-11-14 06:01:00,36.8,21.7,29.25,NW,308,0.0,1.0,54,0.00,,---,0.00,VWS V12.08,2013-11-14 12:01:00,
2013-11-14 06:06:00,36.8,22.2,29.26,West,265,0.0,1.0,55,0.00,,---,0.00,VWS V12.08,2013-11-14 12:06:00,
2013-11-14 06:11:00,36.8,22.2,29.26,North,352,0.0,1.0,55,0.00,,---,0.00,VWS V12.08,2013-11-14 12:11:00,
2013-11-14 06:16:00,36.7,22.1,29.25,WNW,303,0.0,1.0,55,0.00,,---,0.00,VWS V12.08,2013-11-14 12:16:00,
2013-11-14 06:22:00,36.6,22.0,29.25,WNW,294,0.0,1.0,55,0.00,,---,0.00,VWS V12.08,2013-11-14 12:22:00,
2013-11-14 06:28:00,36.6,22.0,29.26,NNW,328,0.0,1.0,55,0.00,,---,0.00,VWS V12.08,2013-11-14 12:28:00,
2013-11-14 06:33:00,36.5,21.9,29.26,West,279,0.0,1.0,55,0.00,,---,0.00,VWS V12.08,2013-11-14 12:33:00,
2013-11-14 06:38:00,36.5,21.9,29.25,NW,316,0.0,1.0,55,0.00,,---,0.00,VWS V12.08,2013-11-14 12:38:00,
2013-11-14 06:43:00,36.4,21.8,29.26,WNW,283,0.0,1.0,55,0.00,,---,0.00,VWS V12.08,2013-11-14 12:43:00,
2013-11-14 06:49:00,36.3,22.1,29.26,NNW,328,0.0,1.0,56,0.00,,---,0.00,VWS V12.08,2013-11-14 12:49:00,
2013-11-14 06:55:00,36.3,22.1,29.27,WNW,288,0.0,1.0,56,0.00,,---,0.00,VWS V12.08,2013-11-14 12:55:00,
2013-11-14 07:00:00,36.2,22.0,29.26,WNW,300,0.0,0.0,56,0.00,,---,0.00,VWS V12.08,2013-11-14 13:00:00,
2013-11-14 07:05:00,36.2,22.0,29.26,WNW,301,0.0,1.0,56,0.00,,---,0.00,VWS V12.08,2013-11-14 13:05:00,
2013-11-14 07:10:00,36.2,22.0,29.26,West,276,0.0,1.0,56,0.00,,---,0.00,VWS V12.08,2013-11-14 13:10:00,
2013-11-14 07:16:00,36.3,22.5,29.25,NW,311,0.0,1.0,57,0.00,,---,0.00,VWS V12.08,2013-11-14 13:16:00,
2013-11-14 07:21:00,36.4,22.6,29.26,NW,315,0.0,1.0,57,0.00,,---,0.00,VWS V12.08,2013-11-14 13:21:00,
2013-11-14 07:26:00,36.5,22.3,29.26,WNW,294,0.0,1.0,56,0.00,,---,0.00,VWS V12.08,2013-11-14 13:26:00,
2013-11-14 07:32:00,36.7,22.5,29.25,West,280,0.0,1.0,56,0.00,,---,0.00,VWS V12.08,2013-11-14 13:32:00,
2013-11-14 07:38:00,36.9,22.7,29.25,WSW,243,0.0,1.0,56,0.00,,---,0.00,VWS V12.08,2013-11-14 13:38:00,
2013-11-14 07:43:00,37.1,22.9,29.26,West,274,0.0,1.0,56,0.00,,---,0.00,VWS V12.08,2013-11-14 13:43:00,
2013-11-14 07:48:00,37.3,23.1,29.27,West,263,0.0,1.0,56,0.00,,---,0.00,VWS V12.08,2013-11-14 13:48:00,
2013-11-14 07:53:00,37.5,23.2,29.27,West,269,0.0,1.0,56,0.00,,---,0.00,VWS V12.08,2013-11-14 13:53:00,
2013-11-14 07:59:00,37.8,23.1,29.27,NW,309,0.0,1.0,55,0.00,,---,0.00,VWS V12.08,2013-11-14 13:59:00,
2013-11-14 08:04:00,37.9,23.2,29.26,WNW,289,0.0,1.0,55,0.00,,---,0.00,VWS V12.08,2013-11-14 14:04:00,
2013-11-14 08:09:00,38.1,23.4,29.27,WSW,255,0.0,1.0,55,0.00,,---,0.00,VWS V12.08,2013-11-14 14:09:00,
2013-11-14 08:14:00,38.3,23.6,29.27,WNW,288,0.0,1.0,55,0.00,,---,0.00,VWS V12.08,2013-11-14 14:14:00,
2013-11-14 08:19:00,38.6,23.8,29.27,WNW,293,1.0,1.0,55,0.00,,---,0.00,VWS V12.08,2013-11-14 14:19:00,
2013-11-14 08:24:00,38.8,23.6,29.27,NW,314,0.0,1.0,54,0.00,,---,0.00,VWS V12.08,2013-11-14 14:24:00,
2013-11-14 08:30:00,39.0,23.8,29.26,WNW,292,0.0,2.0,54,0.00,,---,0.00,VWS V12.08,2013-11-14 14:30:00,
2013-11-14 08:35:00,39.2,23.5,29.26,West,273,0.0,2.0,53,0.00,,---,0.00,VWS V12.08,2013-11-14 14:35:00,
2013-11-14 08:40:00,39.5,23.8,29.26,WNW,302,2.0,2.0,53,0.00,,---,0.00,VWS V12.08,2013-11-14 14:40:00,
2013-11-14 08:45:00,39.7,23.5,29.26,West,272,0.0,2.0,52,0.00,,---,0.00,VWS V12.08,2013-11-14 14:45:00,
2013-11-14 08:48:00,39.8,23.6,29.26,SSW,211,0.0,2.0,52,0.00,,---,0.00,VWS V12.08,2013-11-14 14:48:00,
2013-11-14 08:53:00,40.0,23.8,29.26,WNW,297,0.0,2.0,52,0.00,,---,0.00,VWS V12.08,2013-11-14 14:53:00,
2013-11-14 08:58:00,40.1,23.9,29.26,WNW,303,1.0,2.0,52,0.00,,---,0.00,VWS V12.08,2013-11-14 14:58:00,
2013-11-14 09:03:00,40.3,24.1,29.26,West,278,0.0,1.0,52,0.00,,---,0.00,VWS V12.08,2013-11-14 15:03:00,
2013-11-14 09:08:00,40.4,23.7,29.26,WNW,296,1.0,2.0,51,0.00,,---,0.00,VWS V12.08,2013-11-14 15:08:00,
2013-11-14 09:13:00,40.5,23.8,29.26,WNW,292,0.0,2.0,51,0.00,,---,0.00,VWS V12.08,2013-11-14 15:13:00,
2013-11-14 09:18:00,40.7,24.0,29.26,West,268,0.0,2.0,51,0.00,,---,0.00,VWS V12.08,2013-11-14 15:18:00,
2013-11-14 09:23:00,40.9,23.7,29.27,WNW,292,0.0,2.0,50,0.00,,---,0.00,VWS V12.08,2013-11-14 15:23:00,
2013-11-14 09:28:00,41.3,24.1,29.26,West,274,0.0,2.0,50,0.00,,---,0.00,VWS V12.08,2013-11-14 15:28:00,
2013-11-14 09:33:00,41.6,24.4,29.26,NW,306,1.0,2.0,50,0.00,,---,0.00,VWS V12.08,2013-11-14 15:33:00,
2013-11-14 09:38:00,41.9,24.1,29.26,WNW,296,0.0,2.0,49,0.00,,---,0.00,VWS V12.08,2013-11-14 15:38:00,
2013-11-14 09:44:00,42.3,24.5,29.26,West,268,1.0,2.0,49,0.00,,---,0.00,VWS V12.08,2013-11-14 15:44:00,
2013-11-14 09:49:00,42.6,24.3,29.26,WNW,299,1.0,2.0,48,0.00,,---,0.00,VWS V12.08,2013-11-14 15:49:00,
2013-11-14 09:54:00,42.5,24.2,29.26,NW,322,0.0,2.0,48,0.00,,---,0.00,VWS V12.08,2013-11-14 15:54:00,
2013-11-14 09:59:00,42.8,24.5,29.26,West,277,0.0,2.0,48,0.00,,---,0.00,VWS V12.08,2013-11-14 15:59:00,
2013-11-14 10:04:00,43.0,24.7,29.26,NW,304,0.0,1.0,48,0.00,,---,0.00,VWS V12.08,2013-11-14 16:04:00,
2013-11-14 10:09:00,43.1,24.3,29.26,West,264,0.0,2.0,47,0.00,,---,0.00,VWS V12.08,2013-11-14 16:09:00,
2013-11-14 10:14:00,43.1,24.3,29.25,West,275,1.0,4.0,47,0.00,,---,0.00,VWS V12.08,2013-11-14 16:14:00,
2013-11-14 10:20:00,43.5,24.6,29.26,WNW,300,0.0,4.0,47,0.00,,---,0.00,VWS V12.08,2013-11-14 16:20:00,
2013-11-14 10:26:00,44.0,25.1,29.25,WNW,288,0.0,4.0,47,0.00,,---,0.00,VWS V12.08,2013-11-14 16:26:00,
2013-11-14 10:31:00,44.3,25.4,29.26,WNW,282,1.0,1.0,47,0.00,,---,0.00,VWS V12.08,2013-11-14 16:31:00,
2013-11-14 10:37:00,44.6,25.1,29.26,WNW,289,0.0,2.0,46,0.00,,---,0.00,VWS V12.08,2013-11-14 16:37:00,
2013-11-14 10:42:00,44.7,24.7,29.25,NNW,346,0.0,3.0,45,0.00,,---,0.00,VWS V12.08,2013-11-14 16:42:00,
2013-11-14 10:48:00,45.1,25.0,29.26,WNW,288,0.0,3.0,45,0.00,,---,0.00,VWS V12.08,2013-11-14 16:48:00,
2013-11-14 10:53:00,45.4,25.3,29.25,West,280,1.0,4.0,45,0.00,,---,0.00,VWS V12.08,2013-11-14 16:53:00,
2013-11-14 10:58:00,45.6,24.4,29.25,North,352,0.0,4.0,43,0.00,,---,0.00,VWS V12.08,2013-11-14 16:58:00,
2013-11-14 11:03:00,45.6,25.0,29.25,NNW,338,0.0,1.0,44,0.00,,---,0.00,VWS V12.08,2013-11-14 17:03:00,
2013-11-14 11:09:00,45.7,24.5,29.25,WNW,292,0.0,2.0,43,0.00,,---,0.00,VWS V12.08,2013-11-14 17:09:00,
2013-11-14 11:14:00,45.5,24.9,29.25,West,276,0.0,2.0,44,0.00,,---,0.00,VWS V12.08,2013-11-14 17:14:00,
2013-11-14 11:20:00,45.5,24.9,29.25,NW,309,1.0,2.0,44,0.00,,---,0.00,VWS V12.08,2013-11-14 17:20:00,
2013-11-14 11:25:00,45.4,24.8,29.24,NNW,330,0.0,2.0,44,0.00,,---,0.00,VWS V12.08,2013-11-14 17:25:00,
2013-11-14 11:31:00,45.8,25.1,29.25,NW,321,0.0,3.0,44,0.00,,---,0.00,VWS V12.08,2013-11-14 17:31:00,
2013-11-14 11:36:00,46.0,25.3,29.24,NW,323,0.0,4.0,44,0.00,,---,0.00,VWS V12.08,2013-11-14 17:36:00,
2013-11-14 11:41:00,46.1,24.9,29.24,NW,311,0.0,4.0,43,0.00,,---,0.00,VWS V12.08,2013-11-14 17:41:00,
2013-11-14 11:46:00,46.1,24.9,29.23,NNW,339,0.0,4.0,43,0.00,,---,0.00,VWS V12.08,2013-11-14 17:46:00,
2013-11-14 11:51:00,46.4,25.1,29.23,SW,235,0.0,4.0,43,0.00,,---,0.00,VWS V12.08,2013-11-14 17:51:00,
2013-11-14 11:56:00,46.7,25.4,29.22,NW,307,0.0,4.0,43,0.00,,---,0.00,VWS V12.08,2013-11-14 17:56:00,
2013-11-14 12:01:00,47.1,25.2,29.22,NW,307,3.0,3.0,42,0.00,,---,0.00,VWS V12.08,2013-11-14 18:01:00,
2013-11-14 12:07:00,47.6,25.7,29.20,NNW,334,0.0,3.0,42,0.00,,---,0.00,VWS V12.08,2013-11-14 18:07:00,
2013-11-14 12:13:00,47.9,25.9,29.21,WNW,284,0.0,3.0,42,0.00,,---,0.00,VWS V12.08,2013-11-14 18:13:00,
2013-11-14 12:18:00,48.1,26.1,29.20,WNW,295,0.0,3.0,42,0.00,,---,0.00,VWS V12.08,2013-11-14 18:18:00,
2013-11-14 12:23:00,48.3,26.3,29.19,West,277,0.0,3.0,42,0.00,,---,0.00,VWS V12.08,2013-11-14 18:23:00,
2013-11-14 12:28:00,48.4,26.4,29.20,NNW,330,0.0,4.0,42,0.00,,---,0.00,VWS V12.08,2013-11-14 18:28:00,
2013-11-14 12:33:00,48.9,26.8,29.19,NW,315,0.0,1.0,42,0.00,,---,0.00,VWS V12.08,2013-11-14 18:33:00,
2013-11-14 12:38:00,49.2,27.1,29.18,West,269,0.0,2.0,42,0.00,,---,0.00,VWS V12.08,2013-11-14 18:38:00,
2013-11-14 12:43:00,49.8,27.6,29.20,NNW,330,1.0,2.0,42,0.00,,---,0.00,VWS V12.08,2013-11-14 18:43:00,
2013-11-14 12:49:00,49.6,27.5,29.19,West,274,0.0,2.0,42,0.00,,---,0.00,VWS V12.08,2013-11-14 18:49:00,
2013-11-14 12:55:00,49.7,27.6,29.19,NNW,347,0.0,2.0,42,0.00,,---,0.00,VWS V12.08,2013-11-14 18:55:00,
2013-11-14 13:00:00,49.8,27.1,29.19,NW,307,1.0,1.0,41,0.00,,---,0.00,VWS V12.08,2013-11-14 19:00:00,
2013-11-14 13:05:00,49.7,27.6,29.19,NNW,334,0.0,1.0,42,0.00,,---,0.00,VWS V12.08,2013-11-14 19:05:00,
2013-11-14 13:10:00,49.7,27.6,29.19,WNW,300,0.0,2.0,42,0.00,,---,0.00,VWS V12.08,2013-11-14 19:10:00,
2013-11-14 13:15:00,50.1,27.9,29.19,NW,325,0.0,2.0,42,0.00,,---,0.00,VWS V12.08,2013-11-14 19:15:00,
2013-11-14 13:20:00,50.2,28.0,29.18,NNW,342,0.0,2.0,42,0.00,,---,0.00,VWS V12.08,2013-11-14 19:20:00,
2013-11-14 13:25:00,50.2,27.4,29.19,NW,317,0.0,2.0,41,0.00,,---,0.00,VWS V12.08,2013-11-14 19:25:00,
2013-11-14 13:30:00,50.2,27.4,29.19,NNW,346,1.0,1.0,41,0.00,,---,0.00,VWS V12.08,2013-11-14 19:30:00,
2013-11-14 13:35:00,50.3,27.5,29.18,West,280,1.0,2.0,41,0.00,,---,0.00,VWS V12.08,2013-11-14 19:35:00,
2013-11-14 13:40:00,50.6,27.8,29.18,NNW,331,0.0,2.0,41,0.00,,---,0.00,VWS V12.08,2013-11-14 19:40:00,
2013-11-14 13:45:00,50.6,27.2,29.18,NNW,332,0.0,2.0,40,0.00,,---,0.00,VWS V12.08,2013-11-14 19:45:00,
2013-11-14 13:50:00,50.8,27.4,29.18,NW,320,0.0,2.0,40,0.00,,---,0.00,VWS V12.08,2013-11-14 19:50:00,
2013-11-14 13:55:00,51.4,27.9,29.18,NW,324,0.0,2.0,40,0.00,,---,0.00,VWS V12.08,2013-11-14 19:55:00,
2013-11-14 14:01:00,51.3,27.2,29.18,NW,307,0.0,1.0,39,0.00,,---,0.00,VWS V12.08,2013-11-14 20:01:00,
2013-11-14 14:06:00,51.5,27.4,29.17,North,356,0.0,1.0,39,0.00,,---,0.00,VWS V12.08,2013-11-14 20:06:00,
2013-11-14 14:11:00,51.7,27.6,29.17,NNW,344,0.0,1.0,39,0.00,,---,0.00,VWS V12.08,2013-11-14 20:11:00,
2013-11-14 14:16:00,52.2,28.0,29.17,North,350,0.0,1.0,39,0.00,,---,0.00,VWS V12.08,2013-11-14 20:16:00,
2013-11-14 14:22:00,52.6,27.7,29.17,NNW,334,1.0,1.0,38,0.00,,---,0.00,VWS V12.08,2013-11-14 20:22:00,
2013-11-14 14:27:00,52.6,27.1,29.17,SW,230,0.0,1.0,37,0.00,,---,0.00,VWS V12.08,2013-11-14 20:27:00,
2013-11-14 14:32:00,52.7,27.2,29.17,NW,304,0.0,2.0,37,0.00,,---,0.00,VWS V12.08,2013-11-14 20:32:00,
2013-11-14 14:37:00,52.9,27.4,29.17,North,350,0.0,2.0,37,0.00,,---,0.00,VWS V12.08,2013-11-14 20:37:00,
2013-11-14 14:42:00,53.1,26.9,29.17,NNW,342,0.0,2.0,36,0.00,,---,0.00,VWS V12.08,2013-11-14 20:42:00,
2013-11-14 14:47:00,53.4,27.8,29.17,NNW,341,0.0,2.0,37,0.00,,---,0.00,VWS V12.08,2013-11-14 20:47:00,
2013-11-14 14:53:00,53.6,27.3,29.16,NW,322,0.0,2.0,36,0.00,,---,0.00,VWS V12.08,2013-11-14 20:53:00,
2013-11-14 14:59:00,53.8,27.5,29.17,NNW,345,0.0,2.0,36,0.00,,---,0.00,VWS V12.08,2013-11-14 20:59:00,
2013-11-14 15:04:00,53.9,27.6,29.17,NNW,332,0.0,1.0,36,0.00,,---,0.00,VWS V12.08,2013-11-14 21:04:00,
2013-11-14 15:10:00,53.9,26.9,29.17,NW,321,0.0,1.0,35,0.00,,---,0.00,VWS V12.08,2013-11-14 21:10:00,
2013-11-14 15:15:00,54.0,27.0,29.17,NNW,333,0.0,1.0,35,0.00,,---,0.00,VWS V12.08,2013-11-14 21:15:00,
2013-11-14 15:20:00,53.9,27.6,29.17,NNW,335,0.0,1.0,36,0.00,,---,0.00,VWS V12.08,2013-11-14 21:20:00,
2013-11-14 15:26:00,54.1,27.8,29.16,WSW,258,0.0,1.0,36,0.00,,---,0.00,VWS V12.08,2013-11-14 21:26:00,
2013-11-14 15:32:00,54.0,27.7,29.17,NW,324,0.0,1.0,36,0.00,,---,0.00,VWS V12.08,2013-11-14 21:32:00,
2013-11-14 15:37:00,53.8,27.5,29.17,WNW,285,1.0,1.0,36,0.00,,---,0.00,VWS V12.08,2013-11-14 21:37:00,
2013-11-14 15:43:00,53.7,27.4,29.17,NNW,337,1.0,1.0,36,0.00,,---,0.00,VWS V12.08,2013-11-14 21:43:00,
2013-11-14 15:48:00,53.6,27.3,29.17,NW,311,0.0,1.0,36,0.00,,---,0.00,VWS V12.08,2013-11-14 21:48:00,
2013-11-14 15:53:00,53.4,27.8,29.17,NW,310,1.0,1.0,37,0.00,,---,0.00,VWS V12.08,2013-11-14 21:53:00,
2013-11-14 15:59:00,53.1,27.5,29.17,WNW,303,0.0,1.0,37,0.00,,---,0.00,VWS V12.08,2013-11-14 21:59:00,
2013-11-14 16:04:00,53.0,27.4,29.17,WNW,285,1.0,1.0,37,0.00,,---,0.00,VWS V12.08,2013-11-14 22:04:00,
2013-11-14 16:09:00,52.9,28.0,29.18,NNW,340,0.0,1.0,38,0.00,,---,0.00,VWS V12.08,2013-11-14 22:09:00,
2013-11-14 16:14:00,52.7,28.5,29.18,NW,325,0.0,1.0,39,0.00,,---,0.00,VWS V12.08,2013-11-14 22:14:00,
2013-11-14 16:20:00,52.5,28.3,29.17,NNW,348,0.0,1.0,39,0.00,,---,0.00,VWS V12.08,2013-11-14 22:20:00,
2013-11-14 16:26:00,52.3,28.1,29.17,NNW,328,0.0,1.0,39,0.00,,---,0.00,VWS V12.08,2013-11-14 22:26:00,
2013-11-14 16:31:00,52.1,28.5,29.17,North,351,0.0,1.0,40,0.00,,---,0.00,VWS V12.08,2013-11-14 22:31:00,
2013-11-14 16:36:00,51.9,28.4,29.17,WNW,303,0.0,1.0,40,0.00,,---,0.00,VWS V12.08,2013-11-14 22:36:00,
2013-11-14 16:41:00,51.8,28.3,29.17,WNW,284,0.0,1.0,40,0.00,,---,0.00,VWS V12.08,2013-11-14 22:41:00,
2013-11-14 16:46:00,51.7,28.2,29.17,NNW,330,0.0,1.0,40,0.00,,---,0.00,VWS V12.08,2013-11-14 22:46:00,
2013-11-14 16:52:00,51.5,28.0,29.17,NNW,346,0.0,1.0,40,0.00,,---,0.00,VWS V12.08,2013-11-14 22:52:00,
2013-11-14 16:57:00,51.3,27.8,29.18,West,263,0.0,1.0,40,0.00,,---,0.00,VWS V12.08,2013-11-14 22:57:00,
2013-11-14 17:02:00,51.1,28.2,29.18,West,262,0.0,0.0,41,0.00,,---,0.00,VWS V12.08,2013-11-14 23:02:00,
2013-11-14 17:07:00,50.9,28.1,29.18,West,262,0.0,0.0,41,0.00,,---,0.00,VWS V12.08,2013-11-14 23:07:00,
2013-11-14 17:13:00,50.7,28.5,29.18,West,262,0.0,0.0,42,0.00,,---,0.00,VWS V12.08,2013-11-14 23:13:00,
2013-11-14 17:18:00,50.5,28.3,29.18,West,262,0.0,0.0,42,0.00,,---,0.00,VWS V12.08,2013-11-14 23:18:00,
2013-11-14 17:23:00,50.1,28.5,29.18,West,262,0.0,0.0,43,0.00,,---,0.00,VWS V12.08,2013-11-14 23:23:00,
2013-11-14 17:29:00,49.8,28.2,29.18,West,262,0.0,0.0,43,0.00,,---,0.00,VWS V12.08,2013-11-14 23:29:00,
2013-11-14 17:34:00,49.7,28.7,29.18,West,262,0.0,0.0,44,0.00,,---,0.00,VWS V12.08,2013-11-14 23:34:00,
2013-11-14 17:39:00,49.5,28.5,29.19,West,262,0.0,0.0,44,0.00,,---,0.00,VWS V12.08,2013-11-14 23:39:00,
2013-11-14 17:44:00,49.5,28.5,29.19,West,264,0.0,0.0,44,0.00,,---,0.00,VWS V12.08,2013-11-14 23:44:00,
2013-11-14 17:50:00,49.7,28.7,29.19,West,263,0.0,0.0,44,0.00,,---,0.00,VWS V12.08,2013-11-14 23:50:00,
2013-11-14 17:56:00,49.7,28.7,29.19,West,262,0.0,0.0,44,0.00,,---,0.00,VWS V12.08,2013-11-14 23:56:00,
2013-11-14 18:01:00,49.6,28.6,29.19,West,262,0.0,0.0,44,0.00,,---,0.00,VWS V12.08,2013-11-15 00:01:00,
2013-11-14 18:06:00,49.3,28.3,29.18,West,263,0.0,0.0,44,0.00,,---,0.00,VWS V12.08,2013-11-15 00:06:00,
2013-11-14 18:11:00,48.9,28.5,29.18,West,263,0.0,0.0,45,0.00,,---,0.00,VWS V12.08,2013-11-15 00:11:00,
2013-11-14 18:16:00,48.5,28.1,29.17,West,263,0.0,0.0,45,0.00,,---,0.00,VWS V12.08,2013-11-15 00:16:00,
2013-11-14 18:21:00,48.3,28.0,29.18,West,263,0.0,0.0,45,0.00,,---,0.00,VWS V12.08,2013-11-15 00:21:00,
2013-11-14 18:26:00,47.9,28.1,29.18,West,263,0.0,0.0,46,0.00,,---,0.00,VWS V12.08,2013-11-15 00:26:00,
2013-11-14 18:31:00,47.6,28.4,29.19,West,272,0.0,0.0,47,0.00,,---,0.00,VWS V12.08,2013-11-15 00:31:00,
2013-11-14 18:36:00,47.5,28.3,29.18,NNW,337,0.0,0.0,47,0.00,,---,0.00,VWS V12.08,2013-11-15 00:36:00,
2013-11-14 18:41:00,47.3,28.1,29.18,North,359,0.0,0.0,47,0.00,,---,0.00,VWS V12.08,2013-11-15 00:41:00,
2013-11-14 18:47:00,46.9,27.7,29.19,West,277,0.0,0.0,47,0.00,,---,0.00,VWS V12.08,2013-11-15 00:47:00,
2013-11-14 18:52:00,46.8,28.2,29.18,NW,311,0.0,0.0,48,0.00,,---,0.00,VWS V12.08,2013-11-15 00:52:00,
2013-11-14 18:57:00,46.7,28.1,29.19,WNW,291,0.0,0.0,48,0.00,,---,0.00,VWS V12.08,2013-11-15 00:57:00,
2013-11-14 19:02:00,46.4,27.8,29.18,NNW,340,0.0,0.0,48,0.00,,---,0.00,VWS V12.08,2013-11-15 01:02:00,
2013-11-14 19:07:00,46.3,27.7,29.19,North,356,0.0,0.0,48,0.00,,---,0.00,VWS V12.08,2013-11-15 01:07:00,
2013-11-14 19:12:00,46.1,28.0,29.19,NNW,342,0.0,0.0,49,0.00,,---,0.00,VWS V12.08,2013-11-15 01:12:00,
2013-11-14 19:18:00,45.8,27.7,29.18,NNW,334,0.0,0.0,49,0.00,,---,0.00,VWS V12.08,2013-11-15 01:18:00,
2013-11-14 19:23:00,45.5,28.0,29.19,NNW,338,0.0,0.0,50,0.00,,---,0.00,VWS V12.08,2013-11-15 01:23:00,
2013-11-14 19:29:00,45.5,28.0,29.19,WNW,302,0.0,0.0,50,0.00,,---,0.00,VWS V12.08,2013-11-15 01:29:00,
2013-11-14 19:35:00,45.4,27.9,29.18,NNW,329,0.0,0.0,50,0.00,,---,0.00,VWS V12.08,2013-11-15 01:35:00,
2013-11-14 19:40:00,45.2,27.7,29.19,WNW,299,0.0,0.0,50,0.00,,---,0.00,VWS V12.08,2013-11-15 01:40:00,
2013-11-14 19:46:00,45.0,28.0,29.19,West,265,0.0,0.0,51,0.00,,---,0.00,VWS V12.08,2013-11-15 01:46:00,
2013-11-14 19:51:00,44.9,27.9,29.18,South,187,0.0,0.0,51,0.00,,---,0.00,VWS V12.08,2013-11-15 01:51:00,
2013-11-14 19:56:00,44.8,27.8,29.19,SW,229,0.0,0.0,51,0.00,,---,0.00,VWS V12.08,2013-11-15 01:56:00,
2013-11-14 20:01:00,44.8,27.8,29.18,SW,223,0.0,0.0,51,0.00,,---,0.00,VWS V12.08,2013-11-15 02:01:00,
2013-11-14 20:06:00,44.7,27.7,29.19,West,270,0.0,0.0,51,0.00,,---,0.00,VWS V12.08,2013-11-15 02:06:00,
2013-11-14 20:12:00,44.7,27.7,29.18,North,356,0.0,0.0,51,0.00,,---,0.00,VWS V12.08,2013-11-15 02:12:00,
2013-11-14 20:17:00,44.7,27.7,29.19,WNW,293,0.0,0.0,51,0.00,,---,0.00,VWS V12.08,2013-11-15 02:17:00,
2013-11-14 20:22:00,44.6,27.6,29.19,West,275,0.0,0.0,51,0.00,,---,0.00,VWS V12.08,2013-11-15 02:22:00,
2013-11-14 20:28:00,44.5,28.0,29.18,WNW,283,0.0,0.0,52,0.00,,---,0.00,VWS V12.08,2013-11-15 02:28:00,
2013-11-14 20:33:00,44.4,27.9,29.18,NW,308,0.0,0.0,52,0.00,,---,0.00,VWS V12.08,2013-11-15 02:33:00,
2013-11-14 20:38:00,44.3,27.8,29.18,NW,313,0.0,0.0,52,0.00,,---,0.00,VWS V12.08,2013-11-15 02:38:00,
2013-11-14 20:44:00,44.3,27.8,29.18,NNW,328,0.0,0.0,52,0.00,,---,0.00,VWS V12.08,2013-11-15 02:44:00,
2013-11-14 20:49:00,44.2,27.7,29.18,NW,314,0.0,0.0,52,0.00,,---,0.00,VWS V12.08,2013-11-15 02:49:00,
2013-11-14 20:54:00,44.3,27.8,29.18,West,270,0.0,0.0,52,0.00,,---,0.00,VWS V12.08,2013-11-15 02:54:00,
2013-11-14 21:00:00,44.4,27.4,29.18,West,261,0.0,0.0,51,0.00,,---,0.00,VWS V12.08,2013-11-15 03:00:00,
2013-11-14 21:05:00,44.4,27.9,29.18,West,270,0.0,0.0,52,0.00,,---,0.00,VWS V12.08,2013-11-15 03:05:00,
2013-11-14 21:11:00,44.2,27.2,29.18,West,278,0.0,0.0,51,0.00,,---,0.00,VWS V12.08,2013-11-15 03:11:00,
2013-11-14 21:16:00,43.9,27.4,29.18,North,359,0.0,0.0,52,0.00,,---,0.00,VWS V12.08,2013-11-15 03:16:00,
2013-11-14 21:21:00,43.6,27.1,29.18,WNW,298,0.0,0.0,52,0.00,,---,0.00,VWS V12.08,2013-11-15 03:21:00,
2013-11-14 21:26:00,43.4,27.4,29.18,NNW,339,0.0,0.0,53,0.00,,---,0.00,VWS V12.08,2013-11-15 03:26:00,
2013-11-14 21:31:00,43.3,27.3,29.18,SW,227,0.0,0.0,53,0.00,,---,0.00,VWS V12.08,2013-11-15 03:31:00,
2013-11-14 21:37:00,43.2,27.2,29.18,WNW,283,0.0,0.0,53,0.00,,---,0.00,VWS V12.08,2013-11-15 03:37:00,
2013-11-14 21:42:00,43.2,27.2,29.17,North,0,0.0,0.0,53,0.00,,---,0.00,VWS V12.08,2013-11-15 03:42:00,
2013-11-14 21:48:00,43.2,27.2,29.18,WSW,253,0.0,0.0,53,0.00,,---,0.00,VWS V12.08,2013-11-15 03:48:00,
2013-11-14 21:53:00,43.2,27.2,29.17,NW,319,0.0,0.0,53,0.00,,---,0.00,VWS V12.08,2013-11-15 03:53:00,
2013-11-14 21:59:00,43.2,27.2,29.18,North,0,0.0,0.0,53,0.00,,---,0.00,VWS V12.08,2013-11-15 03:59:00,
2013-11-14 22:04:00,43.2,27.2,29.18,WNW,298,0.0,0.0,53,0.00,,---,0.00,VWS V12.08,2013-11-15 04:04:00,
2013-11-14 22:09:00,43.2,27.2,29.18,SSW,211,0.0,0.0,53,0.00,,---,0.00,VWS V12.08,2013-11-15 04:09:00,
2013-11-14 22:14:00,43.2,27.7,29.18,WNW,298,0.0,0.0,54,0.00,,---,0.00,VWS V12.08,2013-11-15 04:14:00,
2013-11-14 22:19:00,43.2,27.2,29.17,North,356,0.0,0.0,53,0.00,,---,0.00,VWS V12.08,2013-11-15 04:19:00,
2013-11-14 22:24:00,43.2,27.7,29.17,WSW,252,0.0,0.0,54,0.00,,---,0.00,VWS V12.08,2013-11-15 04:24:00,
2013-11-14 22:29:00,43.1,27.6,29.18,South,189,0.0,0.0,54,0.00,,---,0.00,VWS V12.08,2013-11-15 04:29:00,
2013-11-14 22:35:00,43.0,27.5,29.18,West,264,0.0,0.0,54,0.00,,---,0.00,VWS V12.08,2013-11-15 04:35:00,
2013-11-14 22:40:00,42.9,27.4,29.17,North,0,0.0,0.0,54,0.00,,---,0.00,VWS V12.08,2013-11-15 04:40:00,
2013-11-14 22:45:00,42.8,27.3,29.17,NNW,332,0.0,0.0,54,0.00,,---,0.00,VWS V12.08,2013-11-15 04:45:00,
2013-11-14 22:50:00,42.7,27.2,29.18,WNW,286,0.0,0.0,54,0.00,,---,0.00,VWS V12.08,2013-11-15 04:50:00,
2013-11-14 22:55:00,42.6,27.6,29.18,SW,236,0.0,0.0,55,0.00,,---,0.00,VWS V12.08,2013-11-15 04:55:00,
2013-11-14 23:00:00,42.4,27.4,29.18,WNW,291,0.0,0.0,55,0.00,,---,0.00,VWS V12.08,2013-11-15 05:00:00,
2013-11-14 23:01:00,42.4,27.4,29.18,NW,323,0.0,0.0,55,0.00,,---,0.00,VWS V12.08,2013-11-15 05:01:00,
2013-11-14 23:02:00,42.4,27.4,29.18,North,357,0.0,0.0,55,0.00,,---,0.00,VWS V12.08,2013-11-15 05:02:00,
2013-11-14 23:03:00,42.4,27.4,29.18,North,0,0.0,0.0,55,0.00,,---,0.00,VWS V12.08,2013-11-15 05:03:00,
2013-11-14 23:05:00,42.3,27.3,29.18,SSW,197,0.0,0.0,55,0.00,,---,0.00,VWS V12.08,2013-11-15 05:05:00,
2013-11-14 23:06:00,42.3,27.3,29.18,SSW,205,0.0,0.0,55,0.00,,---,0.00,VWS V12.08,2013-11-15 05:06:00,
2013-11-14 23:08:00,42.3,27.3,29.18,North,0,0.0,0.0,55,0.00,,---,0.00,VWS V12.08,2013-11-15 05:08:00,
2013-11-14 23:13:00,42.4,27.8,29.18,North,0,0.0,0.0,56,0.00,,---,0.00,VWS V12.08,2013-11-15 05:13:00,
2013-11-14 23:18:00,42.3,27.3,29.18,West,265,0.0,0.0,55,0.00,,---,0.00,VWS V12.08,2013-11-15 05:18:00,
2013-11-14 23:23:00,42.3,27.3,29.19,WSW,255,0.0,0.0,55,0.00,,---,0.00,VWS V12.08,2013-11-15 05:23:00,
2013-11-14 23:28:00,42.2,27.6,29.19,SW,214,0.0,0.0,56,0.00,,---,0.00,VWS V12.08,2013-11-15 05:28:00,
2013-11-14 23:33:00,42.1,27.5,29.18,North,355,0.0,0.0,56,0.00,,---,0.00,VWS V12.08,2013-11-15 05:33:00,
2013-11-14 23:38:00,42.0,27.5,29.18,SSW,206,0.0,0.0,56,0.00,,---,0.00,VWS V12.08,2013-11-15 05:38:00,
2013-11-14 23:43:00,41.9,27.4,29.18,SW,218,0.0,0.0,56,0.00,,---,0.00,VWS V12.08,2013-11-15 05:43:00,
2013-11-14 23:48:00,41.9,27.8,29.18,NW,306,0.0,0.0,57,0.00,,---,0.00,VWS V12.08,2013-11-15 05:48:00,
2013-11-14 23:53:00,41.9,27.8,29.18,NNW,336,0.0,0.0,57,0.00,,---,0.00,VWS V12.08,2013-11-15 05:53:00,
2013-11-14 23:59:00,41.8,27.7,29.18,WSW,255,0.0,0.0,57,0.00,,---,0.00,VWS V12.08,2013-11-15 05:59:00,